| time (UTC) | temp F | wind direction | speed MPH | gust MPH | rain 1hr in | rain 24hr in | rain mn in | humidity % | barometer mb |
| 20260505021823 | 51 | 198 | 1.0 | 4.0 | 0.00 | 0.00 | 0.00 | 69 | 999.4 |
| 20260505021317 | 52 | 224 | 2.0 | 4.0 | 0.00 | 0.00 | 0.00 | 69 | 999.2 |
| 20260505020830 | 52 | 209 | 2.0 | 4.0 | 0.00 | 0.00 | 0.00 | 68 | 999.1 |
| 20260505020328 | 53 | 168 | 2.0 | 4.0 | 0.00 | 0.00 | 0.00 | 68 | 999.1 |
| 20260505015824 | 53 | 178 | 1.0 | 4.0 | 0.00 | 0.00 | 0.00 | 67 | 999.0 |
| 20260505015320 | 53 | 220 | 2.0 | 4.0 | 0.00 | 0.00 | 0.00 | 67 | 998.9 |
| 20260505014817 | 53 | 165 | 1.0 | 5.0 | 0.00 | 0.00 | 0.00 | 67 | 998.6 |
| 20260505014334 | 54 | 198 | 2.0 | 8.0 | 0.00 | 0.00 | 0.00 | 66 | 998.5 |
| 20260505013828 | 54 | 273 | 4.0 | 8.0 | 0.00 | 0.00 | 0.00 | 66 | 998.3 |
| 20260505013343 | 54 | 227 | 3.0 | 8.0 | 0.00 | 0.00 | 0.00 | 66 | 998.2 |
| 20260505012818 | 53 | 340 | 2.0 | 5.0 | 0.00 | 0.00 | 0.00 | 66 | 997.8 |
| 20260505012315 | 54 | 293 | 1.0 | 5.0 | 0.00 | 0.00 | 0.00 | 66 | 997.8 |
| 20260505011831 | 54 | 307 | 2.0 | 5.0 | 0.00 | 0.00 | 0.00 | 67 | 997.7 |
| 20260505011327 | 55 | 223 | 1.0 | 5.0 | 0.00 | 0.00 | 0.00 | 65 | 997.4 |
| 20260505010836 | 56 | 270 | 1.0 | 4.0 | 0.00 | 0.00 | 0.00 | 64 | 997.1 |
| 20260505010328 | 56 | 250 | 1.0 | 6.0 | 0.00 | 0.00 | 0.00 | 63 | 996.9 |
| 20260505005824 | 57 | 142 | 2.0 | 6.0 | 0.00 | 0.00 | 0.00 | 62 | 997.0 |
| 20260505005321 | 57 | 121 | 2.0 | 9.0 | 0.00 | 0.00 | 0.00 | 61 | 996.7 |
| 20260505004837 | 57 | 169 | 3.0 | 10.0 | 0.00 | 0.00 | 0.00 | 62 | 996.7 |
| 20260505004330 | 56 | 136 | 3.0 | 10.0 | 0.00 | 0.00 | 0.00 | 62 | 996.7 |
| 20260505003822 | 57 | 151 | 2.0 | 5.0 | 0.00 | 0.00 | 0.00 | 62 | 996.6 |
| 20260505003317 | 57 | 155 | 2.0 | 7.0 | 0.00 | 0.00 | 0.00 | 60 | 996.7 |
| 20260505002833 | 58 | 188 | 2.0 | 11.0 | 0.00 | 0.00 | 0.00 | 60 | 996.5 |
| 20260505002328 | 57 | 48 | 4.0 | 11.0 | 0.00 | 0.00 | 0.00 | 60 | 996.4 |
| 20260505001856 | 57 | 149 | 2.0 | 6.0 | 0.00 | 0.00 | 0.00 | 62 | 996.4 |
| 20260505001329 | 58 | 217 | 2.0 | 8.0 | 0.00 | 0.00 | 0.00 | 59 | 996.4 |
| 20260505000833 | 58 | 142 | 4.0 | 8.0 | 0.00 | 0.00 | 0.00 | 60 | 996.6 |
| 20260505000325 | 59 | 137 | 2.0 | 8.0 | 0.00 | 0.00 | 0.00 | 59 | 996.5 |
| 20260504235842 | 59 | 143 | 2.0 | 8.0 | 0.00 | 0.00 | 0.00 | 58 | 996.4 |
| 20260504235330 | 59 | 154 | 3.0 | 13.0 | 0.00 | 0.00 | 0.00 | 57 | 996.3 |
| 20260504234826 | 60 | 153 | 3.0 | 13.0 | 0.00 | 0.00 | 0.00 | 56 | 996.3 |
| 20260504234320 | 61 | 167 | 4.0 | 8.0 | 0.00 | 0.00 | 0.00 | 55 | 996.3 |
| 20260504233836 | 61 | 132 | 3.0 | 9.0 | 0.00 | 0.00 | 0.00 | 55 | 996.3 |
| 20260504233352 | 61 | 147 | 3.0 | 8.0 | 0.00 | 0.00 | 0.00 | 55 | 996.4 |
| 20260504232823 | 61 | 140 | 3.0 | 8.0 | 0.00 | 0.00 | 0.00 | 55 | 996.4 |
| 20260504232338 | 61 | 189 | 3.0 | 7.0 | 0.00 | 0.00 | 0.00 | 56 | 996.5 |
| 20260504231823 | 61 | 150 | 4.0 | 7.0 | 0.00 | 0.00 | 0.00 | 56 | 996.7 |
| 20260504231337 | 61 | 134 | 3.0 | 7.0 | 0.00 | 0.00 | 0.00 | 55 | 996.8 |
| 20260504230831 | 62 | 165 | 3.0 | 7.0 | 0.00 | 0.00 | 0.00 | 55 | 996.8 |
| 20260504230322 | 62 | 162 | 3.0 | 9.0 | 0.00 | 0.00 | 0.00 | 55 | 997.0 |
| 20260504225817 | 62 | 161 | 4.0 | 9.0 | 0.00 | 0.00 | 0.00 | 55 | 997.1 |
| 20260504225330 | 62 | 134 | 3.0 | 8.0 | 0.00 | 0.00 | 0.00 | 54 | 997.3 |
| 20260504224846 | 62 | 216 | 3.0 | 10.0 | 0.00 | 0.00 | 0.00 | 54 | 997.3 |
| 20260504224322 | 62 | 195 | 4.0 | 15.0 | 0.00 | 0.00 | 0.00 | 55 | 997.4 |
| 20260504223837 | 62 | 216 | 4.0 | 15.0 | 0.00 | 0.00 | 0.00 | 55 | 997.4 |
| 20260504223326 | 61 | 181 | 3.0 | 8.0 | 0.00 | 0.00 | 0.00 | 57 | 997.5 |
| 20260504222836 | 60 | 129 | 3.0 | 10.0 | 0.00 | 0.00 | 0.00 | 58 | 997.5 |
| 20260504222322 | 60 | 148 | 4.0 | 10.0 | 0.00 | 0.00 | 0.00 | 58 | 997.5 |
| 20260504221819 | 60 | 103 | 3.0 | 10.0 | 0.00 | 0.00 | 0.00 | 59 | 997.6 |
| 20260504221335 | 60 | 134 | 4.0 | 8.0 | 0.00 | 0.00 | 0.00 | 59 | 997.6 |
| 20260504220827 | 61 | 153 | 4.0 | 8.0 | 0.00 | 0.00 | 0.00 | 58 | 997.8 |
| 20260504220325 | 61 | 233 | 3.0 | 9.0 | 0.00 | 0.00 | 0.00 | 59 | 997.7 |
| 20260504215815 | 61 | 161 | 3.0 | 10.0 | 0.00 | 0.00 | 0.00 | 58 | 997.9 |
| 20260504215353 | 61 | 173 | 4.0 | 10.0 | 0.00 | 0.00 | 0.00 | 58 | 997.9 |
| 20260504214820 | 61 | 153 | 3.0 | 8.0 | 0.00 | 0.00 | 0.00 | 60 | 998.0 |
| 20260504214317 | 61 | 149 | 4.0 | 9.0 | 0.00 | 0.00 | 0.00 | 60 | 998.1 |
| 20260504213832 | 60 | 223 | 4.0 | 15.0 | 0.00 | 0.00 | 0.00 | 61 | 998.1 |
| 20260504213347 | 60 | 137 | 4.0 | 15.0 | 0.00 | 0.00 | 0.00 | 61 | 998.2 |
| 20260504212836 | 59 | 150 | 3.0 | 11.0 | 0.00 | 0.00 | 0.00 | 62 | 998.3 |
| 20260504212322 | 59 | 141 | 2.0 | 7.0 | 0.00 | 0.00 | 0.00 | 62 | 998.4 |
| 20260504211836 | 59 | 140 | 3.0 | 9.0 | 0.00 | 0.00 | 0.00 | 63 | 998.4 |
| 20260504211326 | 59 | 151 | 3.0 | 9.0 | 0.00 | 0.00 | 0.00 | 63 | 998.5 |
| 20260504210819 | 59 | 195 | 3.0 | 9.0 | 0.00 | 0.00 | 0.00 | 62 | 998.6 |
| 20260504210316 | 59 | 117 | 3.0 | 6.0 | 0.00 | 0.00 | 0.00 | 62 | 998.7 |
| 20260504205829 | 59 | 65 | 2.0 | 5.0 | 0.00 | 0.00 | 0.00 | 62 | 998.8 |
| 20260504205325 | 59 | 139 | 2.0 | 5.0 | 0.00 | 0.00 | 0.00 | 62 | 998.9 |
| 20260504204820 | 59 | 127 | 3.0 | 5.0 | 0.00 | 0.00 | 0.00 | 62 | 999.0 |
| 20260504204331 | 60 | 139 | 3.0 | 5.0 | 0.00 | 0.00 | 0.00 | 60 | 999.0 |
| 20260504203826 | 60 | 139 | 2.0 | 7.0 | 0.00 | 0.00 | 0.00 | 62 | 999.1 |
| 20260504203319 | 60 | 156 | 4.0 | 10.0 | 0.00 | 0.00 | 0.00 | 60 | 999.1 |
| 20260504202831 | 60 | 153 | 3.0 | 10.0 | 0.00 | 0.00 | 0.00 | 61 | 999.1 |
| 20260504202338 | 60 | 200 | 3.0 | 13.0 | 0.00 | 0.00 | 0.00 | 59 | 999.1 |
| 20260504201822 | 60 | 144 | 4.0 | 13.0 | 0.00 | 0.00 | 0.00 | 61 | 999.2 |
| 20260504201351 | 60 | 212 | 4.0 | 10.0 | 0.00 | 0.00 | 0.00 | 60 | 999.3 |
| 20260504200835 | 60 | 217 | 3.0 | 12.0 | 0.00 | 0.00 | 0.00 | 60 | 999.3 |
| 20260504200327 | 60 | 188 | 3.0 | 12.0 | 0.00 | 0.00 | 0.00 | 61 | 999.4 |
| 20260504195818 | 59 | 197 | 5.0 | 11.0 | 0.00 | 0.00 | 0.00 | 61 | 999.5 |
| 20260504195331 | 59 | 173 | 5.0 | 11.0 | 0.00 | 0.00 | 0.00 | 61 | 999.6 |
| 20260504194826 | 59 | 146 | 4.0 | 11.0 | 0.00 | 0.00 | 0.00 | 62 | 999.6 |
| 20260504194341 | 59 | 188 | 3.0 | 9.0 | 0.00 | 0.00 | 0.00 | 61 | 999.7 |
| 20260504193900 | 59 | 142 | 3.0 | 9.0 | 0.00 | 0.00 | 0.00 | 62 | 999.7 |
| 20260504193323 | 58 | 250 | 3.0 | 10.0 | 0.00 | 0.00 | 0.00 | 62 | 999.7 |
| 20260504192834 | 58 | 172 | 4.0 | 10.0 | 0.00 | 0.00 | 0.00 | 61 | 999.8 |
| 20260504192329 | 58 | 13 | 3.0 | 8.0 | 0.00 | 0.00 | 0.00 | 62 | 999.7 |
| 20260504191904 | 57 | 140 | 3.0 | 8.0 | 0.00 | 0.00 | 0.00 | 62 | 999.8 |
| 20260504191329 | 57 | 190 | 3.0 | 8.0 | 0.00 | 0.00 | 0.00 | 62 | 999.8 |
| 20260504190820 | 57 | 171 | 2.0 | 7.0 | 0.00 | 0.00 | 0.00 | 62 | 999.8 |
| 20260504190349 | 57 | 161 | 3.0 | 7.0 | 0.00 | 0.00 | 0.00 | 62 | 999.9 |
| 20260504185841 | 57 | 141 | 2.0 | 6.0 | 0.00 | 0.00 | 0.00 | 61 | 999.8 |
| 20260504185317 | 58 | 148 | 3.0 | 9.0 | 0.00 | 0.00 | 0.00 | 61 | 999.8 |
| 20260504184847 | 58 | 198 | 2.0 | 9.0 | 0.00 | 0.00 | 0.00 | 61 | 999.8 |
| 20260504184340 | 57 | 140 | 2.0 | 7.0 | 0.00 | 0.00 | 0.00 | 62 | 999.9 |
| 20260504183833 | 57 | 144 | 3.0 | 9.0 | 0.00 | 0.00 | 0.00 | 62 | 999.9 |
| 20260504183342 | 57 | 153 | 3.0 | 9.0 | 0.00 | 0.00 | 0.00 | 63 | 999.9 |
| 20260504182828 | 56 | 122 | 2.0 | 12.0 | 0.00 | 0.00 | 0.00 | 63 | 1000.0 |
| 20260504182323 | 56 | 144 | 3.0 | 12.0 | 0.00 | 0.00 | 0.00 | 63 | 1000.1 |
| 20260504181839 | 56 | 234 | 3.0 | 7.0 | 0.00 | 0.00 | 0.00 | 64 | 1000.1 |
| 20260504181349 | 55 | 163 | 3.0 | 9.0 | 0.00 | 0.00 | 0.00 | 64 | 1000.1 |
| 20260504180817 | 55 | 126 | 3.0 | 11.0 | 0.00 | 0.00 | 0.00 | 64 | 1000.1 |
| 20260504180335 | 56 | 146 | 4.0 | 11.0 | 0.00 | 0.00 | 0.00 | 63 | 1000.1 |
| 20260504175821 | 56 | 82 | 4.0 | 10.0 | 0.00 | 0.00 | 0.00 | 63 | 1000.2 |
| 20260504175337 | 56 | 86 | 2.0 | 8.0 | 0.00 | 0.00 | 0.00 | 62 | 1000.2 |
| 20260504174846 | 56 | 159 | 3.0 | 8.0 | 0.00 | 0.00 | 0.00 | 62 | 1000.4 |
| 20260504174329 | 56 | 153 | 4.0 | 11.0 | 0.00 | 0.00 | 0.00 | 63 | 1000.5 |
| 20260504173822 | 56 | 197 | 4.0 | 15.0 | 0.00 | 0.00 | 0.00 | 64 | 1000.6 |
| 20260504173317 | 55 | 69 | 4.0 | 15.0 | 0.00 | 0.00 | 0.00 | 64 | 1000.7 |
| 20260504172831 | 56 | 198 | 4.0 | 15.0 | 0.00 | 0.00 | 0.00 | 63 | 1000.7 |
| 20260504172343 | 55 | 268 | 2.0 | 9.0 | 0.00 | 0.00 | 0.00 | 63 | 1000.7 |
| 20260504171815 | 55 | 184 | 3.0 | 10.0 | 0.00 | 0.00 | 0.00 | 63 | 1000.7 |
| 20260504171333 | 55 | 136 | 3.0 | 12.0 | 0.00 | 0.00 | 0.00 | 64 | 1000.8 |
| 20260504170827 | 54 | 171 | 3.0 | 12.0 | 0.00 | 0.00 | 0.00 | 64 | 1000.8 |
| 20260504170322 | 54 | 170 | 3.0 | 10.0 | 0.00 | 0.00 | 0.00 | 66 | 1001.0 |
| 20260504160329 | 53 | 157 | 3.0 | 10.0 | 0.00 | 0.00 | 0.00 | 65 | 1001.4 |
| 20260504150818 | 52 | 83 | 2.0 | 10.0 | 0.00 | 0.00 | 0.00 | 67 | 1001.8 |
| 20260504150333 | 52 | 157 | 3.0 | 10.0 | 0.00 | 0.00 | 0.00 | 68 | 1001.9 |
| 20260504140833 | 51 | 154 | 2.0 | 7.0 | 0.00 | 0.00 | 0.00 | 69 | 1002.2 |
| 20260504140329 | 51 | 155 | 2.0 | 7.0 | 0.00 | 0.00 | 0.00 | 69 | 1002.4 |
| 20260504130328 | 48 | 232 | 2.0 | 7.0 | 0.00 | 0.00 | 0.00 | 72 | 1002.8 |
| 20260504120317 | 47 | 148 | 2.0 | 6.0 | 0.00 | 0.00 | 0.00 | 75 | 1003.0 |
| 20260504110314 | 47 | 291 | 1.0 | 2.0 | 0.00 | 0.00 | 0.00 | 74 | 1002.6 |
| 20260504100349 | 47 | 67 | 2.0 | 3.0 | 0.00 | 0.00 | 0.00 | 73 | 1002.7 |
| 20260504081831 | 48 | 67 | 2.0 | 4.0 | 0.00 | 0.00 | 0.00 | 73 | 1003.5 |
| 20260504081346 | 48 | 69 | 2.0 | 5.0 | 0.00 | 0.00 | 0.00 | 72 | 1003.5 |
| 20260504080835 | 48 | 49 | 2.0 | 6.0 | 0.00 | 0.00 | 0.00 | 72 | 1003.5 |
| 20260504080329 | 48 | 98 | 1.0 | 6.0 | 0.00 | 0.00 | 0.00 | 72 | 1003.5 |
| 20260504070319 | 47 | 104 | 2.0 | 6.0 | 0.00 | 0.00 | 0.00 | 74 | 1004.0 |
| 20260504050333 | 49 | 142 | 2.0 | 7.0 | 0.00 | 0.00 | 0.00 | 72 | 1004.8 |
| 20260504045821 | 49 | 132 | 2.0 | 6.0 | 0.00 | 0.00 | 0.00 | 71 | 1004.8 |
| 20260504045353 | 49 | 149 | 2.0 | 7.0 | 0.00 | 0.00 | 0.00 | 71 | 1004.9 |
| 20260504044833 | 49 | 130 | 2.0 | 7.0 | 0.00 | 0.00 | 0.00 | 71 | 1005.0 |
| 20260504044318 | 50 | 86 | 2.0 | 4.0 | 0.00 | 0.00 | 0.00 | 71 | 1004.9 |
| 20260504043834 | 50 | 136 | 2.0 | 8.0 | 0.00 | 0.00 | 0.00 | 71 | 1004.9 |
| 20260504043331 | 50 | 135 | 3.0 | 8.0 | 0.00 | 0.00 | 0.00 | 70 | 1004.9 |
| 20260504042825 | 50 | 107 | 2.0 | 8.0 | 0.00 | 0.00 | 0.00 | 70 | 1005.0 |
| 20260504042321 | 50 | 148 | 2.0 | 6.0 | 0.00 | 0.00 | 0.00 | 70 | 1004.9 |
| 20260504041837 | 51 | 115 | 2.0 | 6.0 | 0.00 | 0.00 | 0.00 | 70 | 1005.0 |
| 20260504041323 | 51 | 199 | 2.0 | 7.0 | 0.00 | 0.00 | 0.00 | 70 | 1005.1 |
| 20260504040855 | 51 | 134 | 3.0 | 7.0 | 0.00 | 0.00 | 0.00 | 70 | 1005.2 |
| 20260504040327 | 51 | 163 | 3.0 | 12.0 | 0.00 | 0.00 | 0.00 | 69 | 1005.2 |
| 20260504035834 | 51 | 107 | 3.0 | 12.0 | 0.00 | 0.00 | 0.00 | 69 | 1005.2 |
| 20260504035327 | 51 | 190 | 3.0 | 7.0 | 0.00 | 0.00 | 0.00 | 69 | 1005.2 |
| 20260504034818 | 51 | 162 | 2.0 | 8.0 | 0.00 | 0.00 | 0.00 | 70 | 1005.3 |
| 20260504034336 | 51 | 206 | 3.0 | 8.0 | 0.00 | 0.00 | 0.00 | 70 | 1005.4 |
| 20260504033830 | 51 | 153 | 2.0 | 5.0 | 0.00 | 0.00 | 0.00 | 69 | 1005.4 |
| 20260504033323 | 51 | 176 | 2.0 | 5.0 | 0.00 | 0.00 | 0.00 | 69 | 1005.5 |
| 20260504032837 | 51 | 161 | 2.0 | 7.0 | 0.00 | 0.00 | 0.00 | 70 | 1005.4 |
| 20260504032328 | 51 | 152 | 3.0 | 7.0 | 0.00 | 0.00 | 0.00 | 70 | 1005.4 |
| 20260504031844 | 51 | 144 | 2.0 | 7.0 | 0.00 | 0.00 | 0.00 | 70 | 1005.4 |
| 20260504031352 | 51 | 215 | 3.0 | 9.0 | 0.00 | 0.00 | 0.00 | 70 | 1005.4 |
| 20260504030826 | 51 | 153 | 4.0 | 9.0 | 0.00 | 0.00 | 0.00 | 70 | 1005.5 |
| 20260504030355 | 51 | 223 | 3.0 | 7.0 | 0.00 | 0.00 | 0.00 | 70 | 1005.3 |
| 20260504025824 | 51 | 153 | 3.0 | 6.0 | 0.00 | 0.00 | 0.00 | 70 | 1005.4 |
| 20260504025318 | 51 | 105 | 2.0 | 5.0 | 0.00 | 0.00 | 0.00 | 69 | 1005.5 |
| 20260504024831 | 51 | 99 | 2.0 | 8.0 | 0.00 | 0.00 | 0.00 | 69 | 1005.4 |
| 20260504024327 | 51 | 121 | 4.0 | 8.0 | 0.00 | 0.00 | 0.00 | 69 | 1005.5 |
| 20260504023820 | 51 | 5 | 2.0 | 6.0 | 0.00 | 0.00 | 0.00 | 69 | 1005.5 |
| 20260504023333 | 51 | 151 | 3.0 | 7.0 | 0.00 | 0.00 | 0.00 | 69 | 1005.5 |
| 20260504022824 | 51 | 192 | 3.0 | 7.0 | 0.00 | 0.00 | 0.00 | 69 | 1005.6 |
| 20260504022333 | 51 | 204 | 3.0 | 7.0 | 0.00 | 0.00 | 0.00 | 69 | 1005.8 |